Location: Carson
(33.8314°N, 118.2820°W)
Time: 13:40:52
(UTC+00:00)

SJ 16-02 - Pass Details

Date: 23 November 2020
Orbit: 606 x 616 km, 75.0° (Epoch: 22 January)

Event Time Altitude Azimuth Distance (km) Brightness Sun altitude
Rises 12:49:38 0° 178° (S) 2,856 4.9 -21.3°
Reaches altitude 10° 12:51:56 10° 171° (S) 1,958 4.1 -20.9°
Maximum altitude 12:56:03 42° 101° (E) 883 2.6 -20.0°
Drops below altitude 10° 13:00:12 10° 31° (NNE) 1,976 4.2 -19.2°
Sets 13:02:32 0° 24° (NNE) 2,886 4.9 -18.7°
